Weather History for Lansdowne House, ON

Change the Weather History Date:

Monday, December 16, 2013

  Actual Average Record
Temperature  
Mean Temperature -18 °F -  
Max Temperature 0 °F - - ()
Min Temperature -37 °F - - ()
Degree Days  
Heating Degree Days 84    
Moisture  
Dew Point -24 °F    
Average Humidity 73    
Maximum Humidity 84    
Minimum Humidity 50    
Precipitation  
Precipitation 0.00 in - - ()
Sea Level Pressure  
Sea Level Pressure 30.00 in    
Wind  
Wind Speed 2 mph ()    
Max Wind Speed 7 mph    
Max Gust Speed -    
T = Trace of Precipitation, MM = Missing Value Source: Averaged Metar Reports

Daily Weather History Graph

Daily Weather History Graph

Search for Another Location

Airport:

Trip Planner

Search our weather history database for the weather conditions in past years. The results will help you decide how hot, cold, wet, or windy it might be!

Date:

Astronomy

Dec. 16, 2013 Rise Set
Actual Time 8:55 AM EST 4:39 PM EST
Civil Twilight 8:14 AM EST 5:20 PM EST
Nautical Twilight 7:30 AM EST 6:04 PM EST
Astronomical Twilight 6:49 AM EST 6:46 PM EST
Moon 4:37 PM EST 7:56 AM EST
Length of Visible Light 9h 06m
Length of Day
7h 43m
Full, 100% of the Moon is Illuminated
Dec 16
Full
Dec 17
Full
Dec 25
Last Quarter
Jan 1
New
Jan 7
First Quarter

Hourly Weather History & Observations

Time (EST) Temp. Windchill Dew Point Humidity Pressure Visibility Wind Dir Wind Speed Gust Speed Precip Events Conditions
12:00 AM -31.4 °F - -37.8 °F 71% 30.22 in - Variable 1.2 mph - N/A   Unknown
1:00 AM -33 °F - -39 °F 54% 30.20 in - Calm Calm - -  
1:00 AM -32.8 °F - -39.5 °F 70% 30.20 in - Variable 2.3 mph - N/A   Unknown
2:00 AM -32.8 °F - -39.3 °F 71% 30.21 in - Variable 2.3 mph - N/A   Unknown
3:00 AM -34.6 °F - -41.6 °F 68% 30.21 in - Calm Calm - N/A   Unknown
4:00 AM -35.3 °F - -42.5 °F 68% 30.19 in - Calm Calm - N/A   Unknown
5:00 AM -35.7 °F - -42.7 °F 68% 30.18 in - Variable 1.2 mph - N/A   Unknown
6:00 AM -37.3 °F - -44.5 °F 67% 30.16 in - Calm Calm - N/A   Unknown
7:00 AM -35 °F - -42 °F 50% 30.13 in - ESE 1.2 mph - -  
7:00 AM -35.1 °F - -42.2 °F 68% 30.13 in - Calm Calm - N/A   Unknown
8:00 AM -36.6 °F - -44.0 °F 67% 30.12 in - Calm Calm - N/A   Unknown
9:00 AM -35.7 °F - -42.9 °F 68% 30.11 in - Variable 1.2 mph - N/A   Unknown
10:00 AM -22.0 °F - -27.6 °F 75% 30.08 in - NW 2.3 mph - N/A   Unknown
11:00 AM - - - N/A% 30.06 in - Variable 2.3 mph - N/A   Unknown
12:00 PM -10.1 °F -23.6 °F -14.4 °F 81% 30.01 in - Variable 5.8 mph - N/A   Unknown
1:00 PM -5 °F - -10 °F 70% 29.96 in - Calm Calm - -  
1:00 PM -5.4 °F - -9.8 °F 82% 29.96 in - North - - N/A   Unknown
2:00 PM -3.3 °F -15.4 °F -9.2 °F 76% 29.91 in - Variable 5.8 mph - N/A   Unknown
3:00 PM -1.1 °F -11.2 °F -7.8 °F 73% 29.87 in - Variable 4.6 mph - N/A   Unknown
4:00 PM -0.4 °F - -6.3 °F 76% 29.86 in - North - - N/A   Unknown
5:00 PM -1.3 °F - -6.5 °F 79% 29.84 in - North - - N/A   Unknown
7:00 PM -1 °F - -6 °F 71% 29.79 in - Calm Calm - -  
7:00 PM -1.3 °F -14.5 °F -5.6 °F 82% 29.79 in - Variable 6.9 mph - N/A   Unknown
8:00 PM -0.8 °F -12.5 °F -4.7 °F 83% 29.77 in - Variable 5.8 mph - N/A   Unknown
9:00 PM 0.9 °F -11.9 °F -3.3 °F 83% 29.75 in - Variable 6.9 mph - N/A   Unknown
10:00 PM 0.3 °F -7.5 °F -3.5 °F 84% 29.72 in - Variable 3.5 mph - N/A   Unknown
11:00 PM -0.0 °F -11.6 °F -3.8 °F 84% 29.69 in - Variable 5.8 mph - N/A   Unknown